Time,TemperatureF,DewpointF,PressureIn,WindDirection,WindDirectionDegrees,WindSpeedMPH,WindSpeedGustMPH,Humidity,HourlyPrecipIn,Conditions,Clouds,dailyrainin,SoftwareType,DateUTC
2013-04-07 00:00:00,51.8,48.1,30.22,East,87,3.0,3.0,87,0.00,,,0.00,Wunderground v.1.15,2013-04-07 04:00:00,
2013-04-07 00:10:00,51.7,48.0,30.22,ENE,74,3.0,3.0,87,0.00,,,0.00,Wunderground v.1.15,2013-04-07 04:10:00,
2013-04-07 00:20:00,51.5,47.8,30.22,ENE,78,2.0,3.0,87,0.00,,,0.00,Wunderground v.1.15,2013-04-07 04:20:00,
2013-04-07 00:25:00,51.5,47.8,30.22,East,88,2.0,3.0,87,0.00,,,0.00,Wunderground v.1.15,2013-04-07 04:25:00,
2013-04-07 00:30:00,51.5,47.8,30.22,East,94,3.0,3.0,87,0.00,,,0.00,Wunderground v.1.15,2013-04-07 04:30:00,
2013-04-07 00:35:00,51.4,47.4,30.22,ENE,70,3.0,3.0,86,0.00,,,0.00,Wunderground v.1.15,2013-04-07 04:35:00,
2013-04-07 00:45:00,51.3,47.6,30.21,ENE,70,2.0,3.0,87,0.00,,,0.00,Wunderground v.1.15,2013-04-07 04:45:00,
2013-04-07 00:50:00,51.1,47.4,30.21,ENE,76,2.0,3.0,87,0.00,,,0.00,Wunderground v.1.15,2013-04-07 04:50:00,
2013-04-07 01:00:00,51.0,47.0,30.21,ENE,74,2.0,2.0,86,0.00,,,0.00,Wunderground v.1.15,2013-04-07 05:00:00,
2013-04-07 01:10:00,50.9,46.9,30.21,ENE,66,2.0,2.0,86,0.00,,,0.00,Wunderground v.1.15,2013-04-07 05:10:00,
2013-04-07 01:15:00,50.9,46.9,30.20,ENE,76,2.0,2.0,86,0.00,,,0.00,Wunderground v.1.15,2013-04-07 05:15:00,
2013-04-07 01:25:00,50.8,46.8,30.20,East,80,2.0,6.0,86,0.00,,,0.00,Wunderground v.1.15,2013-04-07 05:25:00,
2013-04-07 01:30:00,50.7,46.7,30.20,ENE,74,2.0,2.0,86,0.00,,,0.00,Wunderground v.1.15,2013-04-07 05:30:00,
2013-04-07 01:35:00,50.7,46.7,30.20,ESE,103,2.0,2.0,86,0.00,,,0.00,Wunderground v.1.15,2013-04-07 05:35:00,
2013-04-07 01:40:00,50.6,46.6,30.19,ENE,71,1.0,1.0,86,0.00,,,0.00,Wunderground v.1.15,2013-04-07 05:40:00,
2013-04-07 01:45:00,50.5,46.8,30.19,East,98,1.0,1.0,87,0.00,,,0.00,Wunderground v.1.15,2013-04-07 05:45:00,
2013-04-07 01:55:00,50.4,46.7,30.19,East,88,1.0,1.0,87,0.00,,,0.00,Wunderground v.1.15,2013-04-07 05:55:00,
2013-04-07 02:05:00,50.2,46.5,30.19,East,88,0.0,1.0,87,0.00,,,0.00,Wunderground v.1.15,2013-04-07 06:05:00,
2013-04-07 02:10:00,49.9,46.2,30.19,East,88,0.0,0.0,87,0.00,,,0.00,Wunderground v.1.15,2013-04-07 06:10:00,
2013-04-07 02:20:00,49.6,46.2,30.18,East,86,0.0,0.0,88,0.00,,,0.00,Wunderground v.1.15,2013-04-07 06:20:00,
2013-04-07 02:25:00,49.5,46.1,30.18,East,86,0.0,2.0,88,0.00,,,0.00,Wunderground v.1.15,2013-04-07 06:25:00,
2013-04-07 02:35:00,49.4,46.3,30.18,East,85,1.0,2.0,89,0.00,,,0.00,Wunderground v.1.15,2013-04-07 06:35:00,
2013-04-07 02:40:00,49.3,45.9,30.18,East,85,1.0,1.0,88,0.00,,,0.00,Wunderground v.1.15,2013-04-07 06:40:00,
2013-04-07 02:50:00,49.1,46.0,30.17,East,85,0.0,0.0,89,0.00,,,0.00,Wunderground v.1.15,2013-04-07 06:50:00,
2013-04-07 03:00:00,48.8,45.7,30.17,East,85,0.0,0.0,89,0.00,,,0.00,Wunderground v.1.15,2013-04-07 07:00:00,
2013-04-07 03:10:00,48.5,45.7,30.17,East,85,0.0,0.0,90,0.00,,,0.00,Wunderground v.1.15,2013-04-07 07:10:00,
2013-04-07 03:20:00,48.3,45.5,30.17,East,85,0.0,0.0,90,0.00,,,0.00,Wunderground v.1.15,2013-04-07 07:20:00,
2013-04-07 03:30:00,48.1,45.3,30.17,East,85,0.0,0.0,90,0.00,,,0.00,Wunderground v.1.15,2013-04-07 07:30:00,
2013-04-07 03:40:00,47.7,45.2,30.16,East,85,0.0,0.0,91,0.00,,,0.00,Wunderground v.1.15,2013-04-07 07:40:00,
2013-04-07 03:50:00,47.3,44.8,30.17,East,85,0.0,0.0,91,0.00,,,0.00,Wunderground v.1.15,2013-04-07 07:50:00,
2013-04-07 04:00:00,46.9,44.7,30.17,East,85,0.0,0.0,92,0.00,,,0.00,Wunderground v.1.15,2013-04-07 08:00:00,
2013-04-07 04:05:00,46.7,44.5,30.17,East,85,0.0,0.0,92,0.00,,,0.00,Wunderground v.1.15,2013-04-07 08:05:00,
2013-04-07 04:15:00,46.5,44.3,30.17,East,85,0.0,0.0,92,0.00,,,0.00,Wunderground v.1.15,2013-04-07 08:15:00,
2013-04-07 04:20:00,46.4,44.5,30.17,East,85,0.0,0.0,93,0.00,,,0.00,Wunderground v.1.15,2013-04-07 08:20:00,
2013-04-07 04:30:00,46.3,44.4,30.18,East,85,0.0,0.0,93,0.00,,,0.00,Wunderground v.1.15,2013-04-07 08:30:00,
2013-04-07 04:35:00,46.1,44.2,30.18,East,85,0.0,0.0,93,0.00,,,0.00,Wunderground v.1.15,2013-04-07 08:35:00,
2013-04-07 04:45:00,45.7,43.8,30.18,East,85,0.0,0.0,93,0.00,,,0.00,Wunderground v.1.15,2013-04-07 08:45:00,
2013-04-07 04:50:00,45.5,43.6,30.18,East,85,0.0,0.0,93,0.00,,,0.00,Wunderground v.1.15,2013-04-07 08:50:00,
2013-04-07 05:00:00,45.2,43.6,30.18,East,85,0.0,0.0,94,0.00,,,0.00,Wunderground v.1.15,2013-04-07 09:00:00,
2013-04-07 05:05:00,45.1,43.5,30.18,East,85,0.0,0.0,94,0.00,,,0.00,Wunderground v.1.15,2013-04-07 09:05:00,
2013-04-07 05:15:00,44.8,43.2,30.18,East,85,0.0,0.0,94,0.00,,,0.00,Wunderground v.1.15,2013-04-07 09:15:00,
2013-04-07 05:20:00,44.7,43.1,30.18,East,85,0.0,0.0,94,0.00,,,0.00,Wunderground v.1.15,2013-04-07 09:20:00,
2013-04-07 05:30:00,44.4,42.8,30.18,East,85,0.0,0.0,94,0.00,,,0.00,Wunderground v.1.15,2013-04-07 09:30:00,
2013-04-07 05:35:00,44.2,42.6,30.18,East,85,0.0,0.0,94,0.00,,,0.00,Wunderground v.1.15,2013-04-07 09:35:00,
2013-04-07 05:50:00,43.6,42.0,30.18,East,85,0.0,0.0,94,0.00,,,0.00,Wunderground v.1.15,2013-04-07 09:50:00,
2013-04-07 06:00:00,43.3,41.7,30.18,East,85,0.0,0.0,94,0.00,,,0.00,Wunderground v.1.15,2013-04-07 10:00:00,
2013-04-07 06:10:00,43.0,41.4,30.18,East,85,0.0,0.0,94,0.00,,,0.00,Wunderground v.1.15,2013-04-07 10:10:00,
2013-04-07 06:20:00,42.7,41.1,30.19,East,85,0.0,0.0,94,0.00,,,0.00,Wunderground v.1.15,2013-04-07 10:20:00,
2013-04-07 06:25:00,42.6,41.0,30.19,East,85,0.0,0.0,94,0.00,,,0.00,Wunderground v.1.15,2013-04-07 10:25:00,
2013-04-07 06:35:00,42.4,40.8,30.19,East,85,0.0,0.0,94,0.00,,,0.00,Wunderground v.1.15,2013-04-07 10:35:00,
2013-04-07 06:40:00,42.3,40.7,30.20,East,85,0.0,0.0,94,0.00,,,0.00,Wunderground v.1.15,2013-04-07 10:40:00,
2013-04-07 06:50:00,42.1,40.5,30.20,East,85,0.0,0.0,94,0.00,,,0.00,Wunderground v.1.15,2013-04-07 10:50:00,
2013-04-07 06:55:00,42.0,40.7,30.20,East,85,0.0,0.0,95,0.00,,,0.00,Wunderground v.1.15,2013-04-07 10:55:00,
2013-04-07 07:00:00,41.8,40.5,30.20,East,85,0.0,0.0,95,0.00,,,0.00,Wunderground v.1.15,2013-04-07 11:00:00,
2013-04-07 07:10:00,41.7,40.4,30.20,East,85,0.0,0.0,95,0.00,,,0.00,Wunderground v.1.15,2013-04-07 11:10:00,
2013-04-07 07:15:00,41.7,40.4,30.20,East,85,0.0,0.0,95,0.00,,,0.00,Wunderground v.1.15,2013-04-07 11:15:00,
2013-04-07 07:20:00,41.7,40.4,30.20,East,85,0.0,0.0,95,0.00,,,0.00,Wunderground v.1.15,2013-04-07 11:20:00,
2013-04-07 07:30:00,41.8,40.5,30.21,East,85,0.0,0.0,95,0.00,,,0.00,Wunderground v.1.15,2013-04-07 11:30:00,
2013-04-07 07:35:00,42.1,40.8,30.21,East,85,0.0,0.0,95,0.00,,,0.00,Wunderground v.1.15,2013-04-07 11:35:00,
2013-04-07 07:45:00,42.9,41.8,30.21,East,85,0.0,0.0,96,0.00,,,0.00,Wunderground v.1.15,2013-04-07 11:45:00,
2013-04-07 07:50:00,43.2,42.1,30.21,East,85,0.0,0.0,96,0.00,,,0.00,Wunderground v.1.15,2013-04-07 11:50:00,
2013-04-07 08:00:00,44.2,43.1,30.21,East,85,0.0,0.0,96,0.00,,,0.00,Wunderground v.1.15,2013-04-07 12:00:00,
2013-04-07 08:10:00,45.1,43.8,30.21,East,85,0.0,0.0,95,0.00,,,0.00,Wunderground v.1.15,2013-04-07 12:10:00,
2013-04-07 08:20:00,46.5,45.1,30.21,East,85,0.0,0.0,95,0.00,,,0.00,Wunderground v.1.15,2013-04-07 12:20:00,
2013-04-07 08:30:00,48.2,46.3,30.22,East,85,0.0,0.0,93,0.00,,,0.00,Wunderground v.1.15,2013-04-07 12:30:00,
2013-04-07 08:40:00,50.1,47.6,30.22,East,85,0.0,2.0,91,0.00,,,0.00,Wunderground v.1.15,2013-04-07 12:40:00,
2013-04-07 08:50:00,51.8,48.7,30.22,East,83,1.0,1.0,89,0.00,,,0.00,Wunderground v.1.15,2013-04-07 12:50:00,
2013-04-07 09:00:00,53.5,49.4,30.22,East,86,1.0,2.0,86,0.00,,,0.00,Wunderground v.1.15,2013-04-07 13:00:00,
2013-04-07 09:05:00,54.4,50.3,30.22,East,86,1.0,2.0,86,0.00,,,0.00,Wunderground v.1.15,2013-04-07 13:05:00,
2013-04-07 09:15:00,56.1,51.0,30.22,ESE,114,1.0,2.0,83,0.00,,,0.00,Wunderground v.1.15,2013-04-07 13:15:00,
2013-04-07 09:20:00,56.7,51.3,30.22,ESE,108,2.0,2.0,82,0.00,,,0.00,Wunderground v.1.15,2013-04-07 13:20:00,
2013-04-07 09:30:00,58.1,52.3,30.22,East,81,1.0,1.0,81,0.00,,,0.00,Wunderground v.1.15,2013-04-07 13:30:00,
2013-04-07 09:40:00,59.5,52.6,30.22,ENE,70,1.0,1.0,78,0.00,,,0.00,Wunderground v.1.15,2013-04-07 13:40:00,
2013-04-07 09:45:00,60.4,53.2,30.22,East,96,1.0,2.0,77,0.00,,,0.00,Wunderground v.1.15,2013-04-07 13:45:00,
2013-04-07 09:55:00,60.6,51.9,30.22,ENE,71,3.0,3.0,73,0.00,,,0.00,Wunderground v.1.15,2013-04-07 13:55:00,
2013-04-07 10:05:00,60.6,52.3,30.22,ESE,111,3.0,4.0,74,0.00,,,0.00,Wunderground v.1.15,2013-04-07 14:05:00,
2013-04-07 10:15:00,60.5,53.3,30.23,ENE,60,3.0,4.0,77,0.00,,,0.00,Wunderground v.1.15,2013-04-07 14:15:00,
2013-04-07 10:25:00,61.3,53.7,30.23,ENE,67,1.0,2.0,76,0.00,,,0.00,Wunderground v.1.15,2013-04-07 14:25:00,
2013-04-07 10:30:00,61.5,53.9,30.23,ENE,76,2.0,4.0,76,0.00,,,0.00,Wunderground v.1.15,2013-04-07 14:30:00,
2013-04-07 10:35:00,61.7,54.1,30.23,East,98,3.0,4.0,76,0.00,,,0.00,Wunderground v.1.15,2013-04-07 14:35:00,
2013-04-07 10:45:00,62.6,54.6,30.23,NE,51,2.0,3.0,75,0.00,,,0.00,Wunderground v.1.15,2013-04-07 14:45:00,
2013-04-07 10:55:00,63.3,54.9,30.23,East,101,2.0,7.0,74,0.00,,,0.00,Wunderground v.1.15,2013-04-07 14:55:00,
2013-04-07 11:05:00,63.9,54.7,30.23,ENE,57,3.0,4.0,72,0.00,,,0.00,Wunderground v.1.15,2013-04-07 15:05:00,
2013-04-07 11:15:00,64.4,54.8,30.23,ENE,73,2.0,7.0,71,0.00,,,0.00,Wunderground v.1.15,2013-04-07 15:15:00,
2013-04-07 11:25:00,64.5,54.9,30.23,East,87,3.0,5.0,71,0.00,,,0.00,Wunderground v.1.15,2013-04-07 15:25:00,
2013-04-07 11:35:00,65.0,54.6,30.23,East,90,3.0,3.0,69,0.00,,,0.00,Wunderground v.1.15,2013-04-07 15:35:00,
2013-04-07 11:45:00,64.9,54.5,30.23,ESE,123,4.0,5.0,69,0.00,,,0.00,Wunderground v.1.15,2013-04-07 15:45:00,
2013-04-07 11:55:00,65.0,54.6,30.23,SE,133,4.0,7.0,69,0.00,,,0.00,Wunderground v.1.15,2013-04-07 15:55:00,
2013-04-07 12:00:00,65.5,54.7,30.22,ENE,71,3.0,3.0,68,0.00,,,0.00,Wunderground v.1.15,2013-04-07 16:00:00,
2013-04-07 12:10:00,66.5,52.2,30.22,East,92,2.0,5.0,60,0.00,,,0.00,Wunderground v.1.15,2013-04-07 16:10:00,
2013-04-07 12:15:00,66.5,54.4,30.22,ESE,114,3.0,5.0,65,0.00,,,0.00,Wunderground v.1.15,2013-04-07 16:15:00,
2013-04-07 12:25:00,66.0,54.7,30.22,East,90,5.0,7.0,67,0.00,,,0.00,Wunderground v.1.15,2013-04-07 16:25:00,
2013-04-07 12:30:00,65.8,54.9,30.22,ESE,115,5.0,5.0,68,0.00,,,0.00,Wunderground v.1.15,2013-04-07 16:30:00,
2013-04-07 12:40:00,66.0,55.5,30.21,East,87,4.0,4.0,69,0.00,,,0.00,Wunderground v.1.15,2013-04-07 16:40:00,
2013-04-07 12:50:00,65.4,55.4,30.21,East,94,4.0,5.0,70,0.00,,,0.00,Wunderground v.1.15,2013-04-07 16:50:00,
2013-04-07 13:00:00,66.2,54.1,30.20,SE,129,3.0,4.0,65,0.00,,,0.00,Wunderground v.1.15,2013-04-07 17:00:00,
2013-04-07 13:05:00,66.3,54.6,30.20,SE,126,4.0,7.0,66,0.00,,,0.00,Wunderground v.1.15,2013-04-07 17:05:00,
2013-04-07 13:15:00,66.3,55.0,30.20,ESE,109,4.0,5.0,67,0.00,,,0.00,Wunderground v.1.15,2013-04-07 17:15:00,
2013-04-07 13:20:00,66.5,55.2,30.20,SSE,148,3.0,6.0,67,0.00,,,0.00,Wunderground v.1.15,2013-04-07 17:20:00,
2013-04-07 13:30:00,66.4,55.1,30.19,ESE,109,3.0,3.0,67,0.00,,,0.00,Wunderground v.1.15,2013-04-07 17:30:00,
2013-04-07 13:40:00,66.0,54.3,30.19,South,175,4.0,6.0,66,0.00,,,0.00,Wunderground v.1.15,2013-04-07 17:40:00,
2013-04-07 13:50:00,66.4,54.3,30.19,SE,134,4.0,4.0,65,0.00,,,0.00,Wunderground v.1.15,2013-04-07 17:50:00,
2013-04-07 14:00:00,67.2,53.3,30.18,ESE,123,3.0,3.0,61,0.00,,,0.00,Wunderground v.1.15,2013-04-07 18:00:00,
2013-04-07 14:10:00,67.5,50.8,30.17,SE,136,4.0,4.0,55,0.00,,,0.00,Wunderground v.1.15,2013-04-07 18:10:00,
2013-04-07 14:20:00,68.0,52.2,30.17,ESE,119,4.0,4.0,57,0.00,,,0.00,Wunderground v.1.15,2013-04-07 18:20:00,
2013-04-07 14:30:00,67.9,54.0,30.17,ENE,63,4.0,4.0,61,0.00,,,0.00,Wunderground v.1.15,2013-04-07 18:30:00,
2013-04-07 14:40:00,67.5,54.5,30.17,SSE,149,4.0,7.0,63,0.00,,,0.00,Wunderground v.1.15,2013-04-07 18:40:00,
2013-04-07 14:50:00,67.8,53.9,30.16,ESE,105,3.0,5.0,61,0.00,,,0.00,Wunderground v.1.15,2013-04-07 18:50:00,
2013-04-07 15:00:00,68.3,51.5,30.16,East,82,4.0,6.0,55,0.00,,,0.00,Wunderground v.1.15,2013-04-07 19:00:00,
2013-04-07 15:10:00,68.4,51.1,30.15,ESE,114,4.0,4.0,54,0.00,,,0.00,Wunderground v.1.15,2013-04-07 19:10:00,
2013-04-07 15:15:00,68.4,53.0,30.15,ENE,78,4.0,4.0,58,0.00,,,0.00,Wunderground v.1.15,2013-04-07 19:15:00,
2013-04-07 15:25:00,68.2,53.3,30.15,ENE,57,4.0,5.0,59,0.00,,,0.00,Wunderground v.1.15,2013-04-07 19:25:00,
2013-04-07 15:30:00,68.4,54.4,30.15,ESE,114,4.0,4.0,61,0.00,,,0.00,Wunderground v.1.15,2013-04-07 19:30:00,
2013-04-07 15:40:00,68.3,54.3,30.14,SE,125,4.0,4.0,61,0.00,,,0.00,Wunderground v.1.15,2013-04-07 19:40:00,
2013-04-07 15:45:00,67.8,54.3,30.14,ESE,105,5.0,5.0,62,0.00,,,0.00,Wunderground v.1.15,2013-04-07 19:45:00,
2013-04-07 15:50:00,67.9,55.3,30.14,ESE,121,5.0,9.0,64,0.00,,,0.00,Wunderground v.1.15,2013-04-07 19:50:00,
2013-04-07 16:00:00,68.1,55.5,30.14,South,171,4.0,5.0,64,0.00,,,0.00,Wunderground v.1.15,2013-04-07 20:00:00,
2013-04-07 16:10:00,67.5,54.9,30.14,ESE,122,5.0,5.0,64,0.00,,,0.00,Wunderground v.1.15,2013-04-07 20:10:00,
2013-04-07 16:15:00,67.3,54.7,30.14,ESE,117,4.0,5.0,64,0.00,,,0.00,Wunderground v.1.15,2013-04-07 20:15:00,
2013-04-07 16:25:00,67.5,54.5,30.14,SE,129,4.0,6.0,63,0.00,,,0.00,Wunderground v.1.15,2013-04-07 20:25:00,
2013-04-07 16:30:00,67.7,54.6,30.13,SE,126,4.0,7.0,63,0.00,,,0.00,Wunderground v.1.15,2013-04-07 20:30:00,
2013-04-07 16:40:00,67.6,55.0,30.13,East,85,4.0,4.0,64,0.00,,,0.00,Wunderground v.1.15,2013-04-07 20:40:00,
2013-04-07 16:50:00,67.9,55.3,30.13,ESE,123,3.0,7.0,64,0.00,,,0.00,Wunderground v.1.15,2013-04-07 20:50:00,
2013-04-07 17:00:00,68.3,55.6,30.12,SE,135,3.0,3.0,64,0.00,,,0.00,Wunderground v.1.15,2013-04-07 21:00:00,
2013-04-07 17:05:00,68.8,55.7,30.12,ESE,116,3.0,3.0,63,0.00,,,0.00,Wunderground v.1.15,2013-04-07 21:05:00,
2013-04-07 17:15:00,68.1,55.5,30.12,South,187,4.0,4.0,64,0.00,,,0.00,Wunderground v.1.15,2013-04-07 21:15:00,
2013-04-07 17:25:00,67.5,55.3,30.13,SSE,156,4.0,4.0,65,0.00,,,0.00,Wunderground v.1.15,2013-04-07 21:25:00,
2013-04-07 17:35:00,67.6,55.8,30.12,East,100,3.0,5.0,66,0.00,,,0.00,Wunderground v.1.15,2013-04-07 21:35:00,
2013-04-07 17:40:00,67.6,56.2,30.12,South,181,4.0,4.0,67,0.00,,,0.00,Wunderground v.1.15,2013-04-07 21:40:00,
2013-04-07 17:50:00,67.7,56.3,30.12,East,95,3.0,6.0,67,0.00,,,0.00,Wunderground v.1.15,2013-04-07 21:50:00,
2013-04-07 18:00:00,67.0,56.1,30.12,SE,146,4.0,4.0,68,0.00,,,0.00,Wunderground v.1.15,2013-04-07 22:00:00,
2013-04-07 18:05:00,66.8,56.3,30.12,ESE,114,4.0,4.0,69,0.00,,,0.00,Wunderground v.1.15,2013-04-07 22:05:00,
2013-04-07 18:10:00,66.5,56.4,30.12,ESE,123,4.0,5.0,70,0.00,,,0.00,Wunderground v.1.15,2013-04-07 22:10:00,
2013-04-07 18:20:00,65.8,56.5,30.12,South,180,3.0,3.0,72,0.00,,,0.00,Wunderground v.1.15,2013-04-07 22:20:00,
2013-04-07 18:25:00,65.6,56.7,30.12,ESE,121,4.0,4.0,73,0.00,,,0.00,Wunderground v.1.15,2013-04-07 22:25:00,
2013-04-07 18:35:00,65.3,57.2,30.12,SE,144,3.0,4.0,75,0.00,,,0.00,Wunderground v.1.15,2013-04-07 22:35:00,
2013-04-07 18:40:00,65.0,57.2,30.12,ENE,74,3.0,3.0,76,0.00,,,0.00,Wunderground v.1.15,2013-04-07 22:40:00,
2013-04-07 18:50:00,64.4,57.7,30.12,SW,223,3.0,3.0,79,0.00,,,0.00,Wunderground v.1.15,2013-04-07 22:50:00,
2013-04-07 19:00:00,64.0,57.7,30.12,SSE,167,3.0,7.0,80,0.00,,,0.00,Wunderground v.1.15,2013-04-07 23:00:00,
2013-04-07 19:05:00,63.8,57.9,30.12,SSE,163,3.0,7.0,81,0.00,,,0.00,Wunderground v.1.15,2013-04-07 23:05:00,
2013-04-07 19:15:00,63.3,58.0,30.12,SSE,161,2.0,4.0,83,0.00,,,0.00,Wunderground v.1.15,2013-04-07 23:15:00,
2013-04-07 19:30:00,62.6,57.7,30.11,SSW,193,1.0,1.0,84,0.00,,,0.00,Wunderground v.1.15,2013-04-07 23:30:00,
2013-04-07 19:35:00,62.5,57.9,30.12,SSW,193,1.0,1.0,85,0.00,,,0.00,Wunderground v.1.15,2013-04-07 23:35:00,
2013-04-07 19:45:00,62.2,58.0,30.12,SSW,193,0.0,2.0,86,0.00,,,0.00,Wunderground v.1.15,2013-04-07 23:45:00,
2013-04-07 19:55:00,61.7,57.8,30.12,SSW,193,1.0,1.0,87,0.00,,,0.00,Wunderground v.1.15,2013-04-07 23:55:00,
2013-04-07 20:00:00,61.5,57.6,30.12,SSW,193,1.0,1.0,87,0.00,,,0.00,Wunderground v.1.15,2013-04-08 00:00:00,
2013-04-07 20:10:00,61.2,57.6,30.12,SSW,193,1.0,1.0,88,0.00,,,0.00,Wunderground v.1.15,2013-04-08 00:10:00,
2013-04-07 20:20:00,61.0,57.7,30.12,SSE,148,0.0,0.0,89,0.00,,,0.00,Wunderground v.1.15,2013-04-08 00:20:00,
2013-04-07 20:30:00,60.7,57.4,30.12,SSE,148,0.0,0.0,89,0.00,,,0.00,Wunderground v.1.15,2013-04-08 00:30:00,
2013-04-07 20:40:00,60.4,57.5,30.13,SSE,148,0.0,0.0,90,0.00,,,0.00,Wunderground v.1.15,2013-04-08 00:40:00,
2013-04-07 20:45:00,60.2,57.3,30.13,SSE,148,0.0,0.0,90,0.00,,,0.00,Wunderground v.1.15,2013-04-08 00:45:00,
2013-04-07 20:55:00,59.8,56.9,30.13,SSE,148,0.0,0.0,90,0.00,,,0.00,Wunderground v.1.15,2013-04-08 00:55:00,
2013-04-07 21:00:00,59.6,56.7,30.13,SSE,148,0.0,0.0,90,0.00,,,0.00,Wunderground v.1.15,2013-04-08 01:00:00,
2013-04-07 21:10:00,59.4,56.5,30.13,SSE,148,0.0,0.0,90,0.00,,,0.00,Wunderground v.1.15,2013-04-08 01:10:00,
2013-04-07 21:20:00,59.1,56.5,30.13,SSE,148,0.0,0.0,91,0.00,,,0.00,Wunderground v.1.15,2013-04-08 01:20:00,
2013-04-07 21:30:00,58.9,56.3,30.14,SSE,148,0.0,0.0,91,0.00,,,0.00,Wunderground v.1.15,2013-04-08 01:30:00,
2013-04-07 21:40:00,58.6,56.3,30.14,SSE,148,0.0,0.0,92,0.00,,,0.00,Wunderground v.1.15,2013-04-08 01:40:00,
2013-04-07 21:50:00,58.4,56.1,30.14,SSE,148,0.0,0.0,92,0.00,,,0.00,Wunderground v.1.15,2013-04-08 01:50:00,
2013-04-07 22:00:00,58.0,55.7,30.14,SSE,148,0.0,0.0,92,0.00,,,0.00,Wunderground v.1.15,2013-04-08 02:00:00,
2013-04-07 22:05:00,57.9,55.6,30.14,SSE,149,0.0,0.0,92,0.00,,,0.00,Wunderground v.1.15,2013-04-08 02:05:00,
2013-04-07 22:15:00,57.7,55.7,30.14,SSE,149,0.0,0.0,93,0.00,,,0.00,Wunderground v.1.15,2013-04-08 02:15:00,
2013-04-07 22:20:00,57.7,55.7,30.14,SSE,149,0.0,0.0,93,0.00,,,0.00,Wunderground v.1.15,2013-04-08 02:20:00,
2013-04-07 22:30:00,57.6,55.6,30.15,SSE,149,0.0,0.0,93,0.00,,,0.00,Wunderground v.1.15,2013-04-08 02:30:00,
2013-04-07 22:45:00,57.5,55.5,30.14,SSE,149,0.0,0.0,93,0.00,,,0.00,Wunderground v.1.15,2013-04-08 02:45:00,
2013-04-07 22:55:00,57.6,55.9,30.14,SSE,149,0.0,0.0,94,0.00,,,0.00,Wunderground v.1.15,2013-04-08 02:55:00,
2013-04-07 23:00:00,57.6,55.9,30.14,SSE,149,0.0,0.0,94,0.00,,,0.00,Wunderground v.1.15,2013-04-08 03:00:00,
2013-04-07 23:10:00,57.8,56.1,30.14,SSE,149,0.0,0.0,94,0.00,,,0.00,Wunderground v.1.15,2013-04-08 03:10:00,
2013-04-07 23:15:00,58.0,56.3,30.14,SSE,149,0.0,0.0,94,0.00,,,0.00,Wunderground v.1.15,2013-04-08 03:15:00,
2013-04-07 23:20:00,58.1,56.4,30.14,SSE,149,0.0,0.0,94,0.00,,,0.00,Wunderground v.1.15,2013-04-08 03:20:00,
2013-04-07 23:30:00,58.9,56.9,30.14,South,172,1.0,1.0,93,0.00,,,0.00,Wunderground v.1.15,2013-04-08 03:30:00,
2013-04-07 23:40:00,59.4,57.1,30.14,SE,146,1.0,1.0,92,0.00,,,0.00,Wunderground v.1.15,2013-04-08 03:40:00,
2013-04-07 23:50:00,59.7,57.1,30.13,SSE,158,1.0,1.0,91,0.00,,,0.00,Wunderground v.1.15,2013-04-08 03:50:00,